Houston Intercontinental, TX

11:57 PM CST on November 16, 2019 (GMT -0600)
George Bush Intercontinental-Houston Airport

Weather History for KIAH - October, 2019

Change the Weather History Date:

Sunday, October 20, 2019

  Actual Average Record
Temperature  
Mean Temperature 82 °F 70 °F  
Max Temperature 90 °F 81 °F 93 °F (2004)
Min Temperature 74 °F 60 °F 32 °F (1989)
Degree Days  
Heating Degree Days 0 1  
Month to date heating degree days 5 9  
Since 1 July heating degree days 5 10  
Cooling Degree Days 17 6  
Month to date cooling degree days 233 168  
Year to date cooling degree days 3413 2993  
Growing Degree Days 32 (Base 50)    
Moisture  
Dew Point 73 °F    
Average Humidity 73    
Maximum Humidity 94    
Minimum Humidity 52    
Precipitation  
Precipitation 0.00 in 0.20 in 2.54 in (1993)
Month to date precipitation 1.65 3.63  
Year to date precipitation 45.52 39.62  
Sea Level Pressure  
Sea Level Pressure 29.78 in    
Wind  
Wind Speed 6 mph (South)    
Max Wind Speed 20 mph    
Max Gust Speed 26 mph    
Visibility 10 miles    
Events Fog    
T = Trace of Precipitation, MM = Missing Value Source: NWS Daily Summary

Daily Weather History Graph

Daily Weather History Graph

Search for Another Location

Airport or City:

Astronomy

Oct. 20, 2019 Rise Set
Actual Time 7:26 AM CDT 6:45 PM CDT
Civil Twilight 7:02 AM CDT 7:09 PM CDT
Nautical Twilight 6:34 AM CDT 7:37 PM CDT
Astronomical Twilight 6:06 AM CDT 8:05 PM CDT
Moon No Moon Rise 1:38 PM CDT (10/20)
Length of Visible Light 12h 07m
Length of Day
11h 19m
Waning Gibbous, 59% of the Moon is Illuminated
Oct 20
Waning Gibbous
Oct 21
Last Quarter
Oct 27
New
Nov 4
First Quarter
Nov 12
Full

Hourly Weather History & Observations

Time (CDT) Temp. Heat Index Dew Point Humidity Pressure Visibility Wind Dir Wind Speed Gust Speed Precip Events Conditions
12:53 AM 78.1 °F - 73.9 °F 87% 29.77 in 10.0 mi SSW 3.5 mph - N/A   Partly Cloudy
1:25 AM 77.0 °F - 73.0 °F 88% 29.78 in 10.0 mi WNW 5.8 mph - N/A   Mostly Cloudy
1:53 AM 78.1 °F - 73.9 °F 87% 29.78 in 10.0 mi West 3.5 mph - N/A   Overcast
2:53 AM 79.0 °F - 73.9 °F 84% 29.78 in 10.0 mi WSW 4.6 mph - N/A   Mostly Cloudy
3:53 AM 78.1 °F - 73.9 °F 87% 29.78 in 10.0 mi WSW 4.6 mph - N/A   Mostly Cloudy
4:53 AM 77.0 °F - 73.9 °F 90% 29.78 in 10.0 mi WSW 3.5 mph - N/A   Scattered Clouds
5:53 AM 75.9 °F - 73.0 °F 91% 29.80 in 10.0 mi South 4.6 mph - N/A   Partly Cloudy
6:53 AM 75.0 °F - 73.0 °F 94% 29.81 in 10.0 mi South 4.6 mph - N/A Fog Shallow Fog
7:53 AM 75.0 °F - 73.0 °F 94% 29.82 in 10.0 mi South 4.6 mph - N/A Fog Shallow Fog
8:53 AM 79.0 °F - 73.9 °F 84% 29.83 in 10.0 mi SSE 3.5 mph - N/A   Partly Cloudy
9:53 AM 82.0 °F 87.9 °F 73.9 °F 76% 29.84 in 10.0 mi South 4.6 mph - N/A   Scattered Clouds
10:53 AM 86.0 °F 93.8 °F 73.9 °F 67% 29.83 in 10.0 mi South 8.1 mph - N/A   Scattered Clouds
11:53 AM 87.1 °F 94.5 °F 73.0 °F 63% 29.83 in 10.0 mi South 11.5 mph 19.6 mph N/A   Scattered Clouds
12:53 PM 88.0 °F 95.6 °F 73.0 °F 61% 29.81 in 10.0 mi SSW 6.9 mph - N/A   Mostly Cloudy
1:53 PM 88.0 °F 92.9 °F 70.0 °F 55% 29.78 in 10.0 mi South 11.5 mph 18.4 mph N/A   Mostly Cloudy
2:53 PM 90.0 °F 95.4 °F 70.0 °F 52% 29.75 in 10.0 mi South 10.4 mph 20.7 mph N/A   Mostly Cloudy
3:53 PM 90.0 °F 96.4 °F 71.1 °F 54% 29.74 in 10.0 mi South 13.8 mph - N/A   Scattered Clouds
4:53 PM 88.0 °F 94.7 °F 72.0 °F 59% 29.74 in 10.0 mi South 13.8 mph 21.9 mph N/A   Scattered Clouds
5:53 PM 86.0 °F 92.2 °F 72.0 °F 63% 29.74 in 10.0 mi South 13.8 mph - N/A   Scattered Clouds
6:53 PM 82.9 °F 88.0 °F 72.0 °F 69% 29.75 in 10.0 mi South 9.2 mph - N/A   Scattered Clouds
7:53 PM 82.0 °F 87.4 °F 73.0 °F 74% 29.75 in 10.0 mi South 12.7 mph 19.6 mph N/A   Scattered Clouds
8:53 PM 81.0 °F 86.2 °F 73.9 °F 79% 29.77 in 10.0 mi South 10.4 mph - N/A   Scattered Clouds
9:53 PM 81.0 °F 86.2 °F 73.9 °F 79% 29.76 in 10.0 mi South 11.5 mph - N/A   Scattered Clouds
10:53 PM 81.0 °F 86.2 °F 73.9 °F 79% 29.76 in 10.0 mi South 10.4 mph - N/A   Scattered Clouds
11:53 PM 81.0 °F 86.7 °F 75.0 °F 82% 29.75 in 10.0 mi South 9.2 mph - N/A   Mostly Cloudy